TimeCST,TemperatureF,Dew PointF,Humidity,Sea Level PressureIn,VisibilityMPH,Wind Direction,Wind SpeedMPH,Gust SpeedMPH,PrecipitationIn,Events,Conditions,WindDirDegrees,DateUTC
12:39 AM,28.4,26.6,93,29.92,5.0,NNW,10.4,-,N/A,,Overcast,330,2013-02-27 06:39:00
12:53 AM,28.9,26.1,89,29.97,5.0,NW,8.1,-,N/A,,Overcast,310,2013-02-27 06:53:00
1:53 AM,28.9,26.1,89,29.99,4.0,WNW,8.1,-,N/A,,Overcast,300,2013-02-27 07:53:00
2:53 AM,30.0,27.0,88,29.99,4.0,NW,10.4,-,0.00,Snow,Light Snow,310,2013-02-27 08:53:00
3:44 AM,30.2,26.6,86,29.96,2.0,NW,11.5,-,0.00,Snow,Light Snow,310,2013-02-27 09:44:00
3:53 AM,30.0,28.0,92,29.99,1.8,WNW,8.1,-,0.00,Snow,Light Snow,300,2013-02-27 09:53:00
4:17 AM,28.4,28.4,100,29.97,1.8,NW,6.9,-,0.00,Snow,Light Snow,310,2013-02-27 10:17:00
4:33 AM,28.4,28.4,100,29.97,2.0,NW,8.1,-,0.00,Snow,Light Snow,310,2013-02-27 10:33:00
4:53 AM,28.9,28.0,96,30.01,1.8,WNW,9.2,-,0.00,Snow,Light Snow,300,2013-02-27 10:53:00
5:17 AM,28.4,26.6,93,29.98,2.5,WNW,10.4,-,0.00,Snow,Light Snow,300,2013-02-27 11:17:00
5:35 AM,28.4,26.6,93,29.98,3.0,WNW,11.5,-,0.00,Snow,Light Snow,300,2013-02-27 11:35:00
5:53 AM,28.0,26.1,92,30.02,3.0,WNW,11.5,-,0.00,Snow,Light Snow,300,2013-02-27 11:53:00
6:15 AM,28.4,26.6,93,29.99,4.0,NW,13.8,-,0.00,,Overcast,310,2013-02-27 12:15:00
6:53 AM,27.0,25.0,92,30.04,4.0,WNW,10.4,-,0.00,,Mostly Cloudy,300,2013-02-27 12:53:00
7:53 AM,27.0,24.1,89,30.06,5.0,NW,13.8,-,N/A,,Overcast,320,2013-02-27 13:53:00
8:53 AM,28.4,24.8,86,30.03,7.0,NW,13.8,-,N/A,,Mostly Cloudy,320,2013-02-27 14:53:00
9:53 AM,30.0,23.0,75,30.09,10.0,NW,13.8,-,N/A,,Scattered Clouds,310,2013-02-27 15:53:00
10:53 AM,33.1,23.0,66,30.10,10.0,NNW,19.6,34.5,N/A,,Scattered Clouds,340,2013-02-27 16:53:00
11:53 AM,33.1,24.1,70,30.12,10.0,NNW,23.0,-,N/A,,Scattered Clouds,340,2013-02-27 17:53:00
12:53 PM,35.1,25.0,67,30.13,10.0,NNW,20.7,29.9,N/A,,Scattered Clouds,330,2013-02-27 18:53:00
1:53 PM,36.0,25.0,64,30.13,10.0,NNW,26.5,32.2,N/A,,Scattered Clouds,330,2013-02-27 19:53:00
2:53 PM,37.9,25.0,60,30.14,10.0,NNW,20.7,32.2,N/A,,Mostly Cloudy,330,2013-02-27 20:53:00
3:53 PM,39.0,25.0,57,30.14,10.0,NW,17.3,28.8,N/A,,Scattered Clouds,320,2013-02-27 21:53:00
4:53 PM,37.9,26.1,62,30.16,10.0,NW,13.8,24.2,N/A,,Partly Cloudy,310,2013-02-27 22:53:00
5:53 PM,36.0,26.1,67,30.17,10.0,NW,15.0,-,N/A,,Partly Cloudy,310,2013-02-27 23:53:00
6:53 PM,34.0,26.1,73,30.18,10.0,NW,15.0,-,N/A,,Partly Cloudy,320,2013-02-28 00:53:00
7:53 PM,33.1,27.0,78,30.20,9.0,NW,13.8,-,N/A,,Scattered Clouds,310,2013-02-28 01:53:00
8:53 PM,33.1,27.0,78,30.20,9.0,NW,13.8,-,N/A,,Partly Cloudy,310,2013-02-28 02:53:00
9:53 PM,32.0,26.1,79,30.21,10.0,WNW,11.5,-,N/A,,Partly Cloudy,300,2013-02-28 03:53:00
10:53 PM,30.0,25.0,82,30.21,10.0,NW,11.5,-,N/A,,Clear,320,2013-02-28 04:53:00
11:53 PM,28.9,24.1,82,30.21,10.0,NW,10.4,-,N/A,,Partly Cloudy,320,2013-02-28 05:53:00